Weather History for KFLG - May, 2013

Change the Weather History Date:

Wednesday, May 22, 2013

  Actual Average Record
Temperature  
Mean Temperature 53 °F 53 °F  
Max Temperature 74 °F 70 °F 85 °F (1984)
Min Temperature 32 °F 36 °F 21 °F (1972)
Degree Days  
Heating Degree Days 12 12  
Month to date heating degree days 327 320  
Since 1 July heating degree days 6570 6676  
Cooling Degree Days 0 0  
Month to date cooling degree days 0 0  
Year to date cooling degree days 0 0  
Growing Degree Days 3 (Base 50)    
Moisture  
Dew Point 19 °F    
Average Humidity 30    
Maximum Humidity 47    
Minimum Humidity 13    
Precipitation  
Precipitation 0.00 in 0.02 in 0.78 in (2009)
Month to date precipitation 0.23 0.45  
Year to date precipitation 5.23 7.93  
Snow  
Snow 0.00 in 0.00 in T in (1975)
Month to date snowfall T 0.6  
Since 1 July snowfall 69.7 101.6  
Snow Depth 0.00 in    
Sea Level Pressure  
Sea Level Pressure 29.76 in    
Wind  
Wind Speed 14 mph (SSW)    
Max Wind Speed 36 mph    
Max Gust Speed 45 mph    
Visibility 10 miles    
Events      
T = Trace of Precipitation, MM = Missing Value Source: NWS Daily Summary

Daily Weather History Graph

Daily Weather History Graph

Search for Another Location

Airport or City:

Trip Planner

Search our weather history database for the weather conditions in past years. The results will help you decide how hot, cold, wet, or windy it might be!

Date:

Astronomy

May. 22, 2013 Rise Set
Actual Time 5:17 AM MST 7:29 PM MST
Civil Twilight 4:49 AM MST 7:57 PM MST
Nautical Twilight 4:14 AM MST 8:33 PM MST
Astronomical Twilight 3:36 AM MST 9:11 PM MST
Moon 5:00 PM MST (5/22) 3:18 AM MST (5/22)
Length of Visible Light 15h 08m
Length of Day
14h 11m
Waxing Gibbous, 92% of the Moon is Illuminated
May 22
Waxing Gibbous
May 24
Full
May 31
Last Quarter
Jun 8
New
Jun 16
First Quarter

Hourly Weather History & Observations

Time (MST) Temp. Dew Point Humidity Pressure Visibility Wind Dir Wind Speed Gust Speed Precip Events Conditions
12:57 AM 39.0 °F 15.1 °F 38% 29.83 in 10.0 mi Calm Calm - N/A   Clear
1:57 AM 39.0 °F 15.1 °F 38% 29.82 in 10.0 mi Calm Calm - N/A   Clear
2:57 AM 36.0 °F 15.1 °F 43% 29.82 in 10.0 mi Calm Calm - N/A   Clear
3:57 AM 33.1 °F 15.1 °F 48% 29.82 in 10.0 mi Calm Calm - N/A   Clear
4:57 AM 33.1 °F 16.0 °F 50% 29.82 in 10.0 mi Calm Calm - N/A   Clear
5:57 AM 36.0 °F 17.1 °F 46% 29.83 in 10.0 mi Calm Calm - N/A   Partly Cloudy
6:57 AM 53.1 °F 21.0 °F 29% 29.78 in 10.0 mi Calm Calm - N/A   Clear
7:57 AM 60.1 °F 18.0 °F 20% 29.76 in 10.0 mi SSW 13.8 mph 19.6 mph N/A   Clear
8:57 AM 63.0 °F 21.0 °F 20% 29.78 in 10.0 mi SSW 17.3 mph 25.3 mph N/A   Clear
9:57 AM 66.0 °F 21.9 °F 19% 29.77 in 10.0 mi SSW 20.7 mph 33.4 mph N/A   Clear
10:57 AM 68.0 °F 23.0 °F 18% 29.79 in 10.0 mi SW 32.2 mph 42.6 mph N/A   Clear
11:57 AM 71.1 °F 21.0 °F 15% 29.78 in 10.0 mi SW 31.1 mph 39.1 mph N/A   Clear
12:57 PM 70.0 °F 21.0 °F 16% 29.77 in 10.0 mi South 27.6 mph 38.0 mph N/A   Clear
1:57 PM 73.0 °F 19.9 °F 14% 29.75 in 10.0 mi SW 19.6 mph 34.5 mph N/A   Clear
2:57 PM 72.0 °F 19.0 °F 13% 29.75 in 10.0 mi SW 32.2 mph 41.4 mph N/A   Clear
3:57 PM 72.0 °F 19.0 °F 13% 29.75 in 10.0 mi SSW 24.2 mph 35.7 mph N/A   Clear
4:57 PM 71.1 °F 19.9 °F 14% 29.76 in 10.0 mi SSW 23.0 mph 39.1 mph N/A   Clear
5:57 PM 69.1 °F 19.0 °F 15% 29.75 in 10.0 mi SSW 17.3 mph 33.4 mph N/A   Clear
6:57 PM 66.0 °F 19.9 °F 17% 29.70 in 10.0 mi SSW 17.3 mph 26.5 mph N/A   Clear
7:57 PM 63.0 °F 19.9 °F 19% 29.70 in 10.0 mi SSW 13.8 mph - N/A   Clear
8:57 PM 61.0 °F 21.0 °F 21% 29.70 in 10.0 mi SW 12.7 mph - N/A   Clear
9:57 PM 60.1 °F 19.9 °F 21% 29.70 in 10.0 mi SSW 15.0 mph - N/A   Clear
10:57 PM 57.0 °F 19.9 °F 24% 29.70 in 10.0 mi SSW 4.6 mph - N/A   Clear
11:57 PM 52.0 °F 19.9 °F 28% 29.70 in 10.0 mi SW 10.4 mph 16.1 mph N/A   Clear